Location: Bruch
(44.2051°N, 0.4120°E)
Time: 04:19:07
(UTC+00:00)

Cosmos 372 Rocket - Pass Details

Date: 29 November 2020
Orbit: 737 x 769 km, 74.1° (Epoch: 24 January)

Event Time Altitude Azimuth Distance (km) Brightness Sun altitude
Rises 06:09:56 0° 202° (SSW) 3,158 7.2 -10.9°
Reaches altitude 10° 06:12:16 10° 204° (SSW) 2,238 6.4 -10.5°
Maximum altitude 06:17:20 78° 291° (WNW) 758 3.9 -9.6°
Drops below altitude 10° 06:22:27 10° 18° (NNE) 2,256 6.4 -8.8°
Sets 06:24:49 0° 20° (NNE) 3,185 7.2 -8.4°
